Date String (YYYY-MM-DD hh:mm:ss) UTC,Instrument flags,Ambient pressure (hPa),Sample flow (lpm),Bypass flow (lpm),Sample temperature (°C),Ambient temperature (°C),ASC tube jacket temperature (°C),LED temperature (°C),Box temperature (°C),Sample RH (%),Span deviation,Mass concentration (μg/m³),Mass concentration (μg/m³),Mass concentration (μg/m³)
DateTimeUTC,F1_M11,P_M11,Q1_M11,Q2_M11,T1_M11,T2_M11,T3_M11,T4_M11,T5_M11,U1_M11,ZSPAN_M11,X2_M11,X0_M11,X1_M11
2021-12-13 12:00:00,,0824.6,5.00,0.00,23.4,22.5,00.0,32.5,25.0,06.3,0000.0,0001.22,0003.46,0000.78
2021-12-13 12:01:00,,0824.6,5.00,0.00,23.4,22.5,00.0,32.5,25.0,06.2,0000.0,0001.26,0003.51,0000.80
2021-12-13 12:02:00,,0824.6,4.99,0.00,23.4,22.5,00.0,32.5,25.0,06.2,0000.0,0001.27,0003.42,0000.82
2021-12-13 12:03:00,,0824.6,5.01,0.00,23.4,22.5,00.0,32.5,25.0,06.2,0000.0,0001.26,0003.24,0000.83
2021-12-13 12:04:00,,0824.6,5.00,0.00,23.4,22.5,00.0,32.5,25.0,06.2,0000.0,0001.29,0003.19,0000.84
2021-12-13 12:05:00,,0824.6,4.99,0.00,23.4,22.5,00.0,32.5,25.0,06.2,0000.0,0001.28,0003.25,0000.85
2021-12-13 12:06:00,,0824.6,5.00,0.00,23.4,22.4,00.0,32.5,25.0,06.3,0000.0,0001.33,0003.84,0000.86
2021-12-13 12:07:00,,0824.6,5.01,0.00,23.3,22.4,00.0,32.4,25.0,06.3,0000.0,0001.38,0004.29,0000.88
2021-12-13 12:08:00,,0824.6,5.01,0.00,23.3,22.4,00.0,32.4,24.9,06.2,0000.0,0001.39,0005.40,0000.90
2021-12-13 12:09:00,,0824.8,4.99,0.00,23.3,22.4,00.0,32.4,24.9,06.2,0000.0,0001.39,0005.46,0000.90
2021-12-13 12:10:00,,0824.6,5.01,0.00,23.3,22.4,00.0,32.4,24.9,06.2,0000.0,0001.38,0005.09,0000.90
2021-12-13 12:11:00,,0824.7,5.01,0.00,23.3,22.3,00.0,32.4,24.9,06.2,0000.0,0001.39,0005.23,0000.90
2021-12-13 12:12:00,,0824.6,5.00,0.00,23.3,22.4,00.0,32.4,24.9,06.2,0000.0,0001.39,0005.19,0000.90
2021-12-13 12:13:00,,0824.8,4.99,0.00,23.3,22.4,00.0,32.4,24.8,06.2,0000.0,0001.43,0005.30,0000.90
2021-12-13 12:14:00,,0824.9,5.00,0.00,23.3,22.3,00.0,32.4,24.8,06.2,0000.0,0001.49,0005.41,0000.91
2021-12-13 12:15:00,,0824.9,5.01,0.00,23.3,22.3,00.0,32.4,24.9,06.2,0000.0,0001.51,0005.52,0000.92
2021-12-13 12:16:00,,0824.7,4.99,0.00,23.2,22.3,00.0,32.4,24.9,06.2,0000.0,0001.49,0005.72,0000.91
2021-12-13 12:17:00,,0824.8,5.01,0.00,23.2,22.3,00.0,32.3,24.9,06.2,0000.0,0001.47,0005.80,0000.89
2021-12-13 12:18:00,,0824.7,4.98,0.00,23.3,22.3,00.0,32.3,24.9,06.2,0000.0,0001.48,0006.42,0000.88
2021-12-13 12:19:00,,0824.8,5.01,0.00,23.2,22.3,00.0,32.3,24.9,06.2,0000.0,0001.49,0005.74,0000.87
2021-12-13 12:20:00,,0825.0,5.00,0.00,23.2,22.2,00.0,32.3,24.8,06.3,0000.0,0001.48,0005.79,0000.86
2021-12-13 12:21:00,,0824.6,5.00,0.00,23.2,22.3,00.0,32.3,24.8,06.3,0000.0,0001.47,0005.72,0000.86
2021-12-13 12:22:00,,0824.5,4.98,0.00,23.2,22.2,00.0,32.3,24.9,06.2,0000.0,0001.50,0005.83,0000.86
2021-12-13 12:23:00,,0824.5,5.01,0.00,23.2,22.2,00.0,32.3,24.8,06.3,0000.0,0001.53,0005.90,0000.86
2021-12-13 12:24:00,,0824.6,5.00,0.00,23.2,22.2,00.0,32.3,24.8,06.3,0000.0,0001.52,0005.92,0000.87
2021-12-13 12:25:00,,0824.8,4.98,0.00,23.2,22.2,00.0,32.3,24.8,06.3,0000.0,0001.49,0005.85,0000.87
2021-12-13 12:26:00,,0824.5,5.01,0.00,23.2,22.2,00.0,32.3,24.8,06.3,0000.0,0001.50,0005.84,0000.87
2021-12-13 12:27:00,,0825.0,4.99,0.00,23.2,22.3,00.0,32.2,24.8,06.3,0000.0,0001.53,0005.99,0000.88
2021-12-13 12:28:00,,0824.6,5.00,0.00,23.2,22.3,00.0,32.2,24.8,06.3,0000.0,0001.53,0006.04,0000.90
2021-12-13 12:29:00,,0824.6,5.00,0.00,23.2,22.2,00.0,32.2,24.8,06.3,0000.0,0001.48,0005.12,0000.91
2021-12-13 12:30:00,,0824.7,4.99,0.00,23.2,22.2,00.0,32.2,24.8,06.3,0000.0,0001.51,0004.82,0000.90
2021-12-13 12:31:00,,0824.7,5.01,0.00,23.2,22.2,00.0,32.2,24.8,06.3,0000.0,0001.50,0004.56,0000.91
2021-12-13 12:32:00,,0824.6,5.00,0.00,23.2,22.3,00.0,32.2,24.8,06.3,0000.0,0001.50,0004.74,0000.92
2021-12-13 12:33:00,,0824.6,5.02,0.00,23.1,22.3,00.0,32.2,24.8,06.3,0000.0,0001.48,0005.63,0000.92
2021-12-13 12:34:00,,0824.7,5.00,0.00,23.1,22.2,00.0,32.2,24.8,06.3,0000.0,0001.50,0005.71,0000.93
2021-12-13 12:35:00,,0824.6,4.99,0.00,23.1,22.2,00.0,32.2,24.8,06.3,0000.0,0001.45,0005.61,0000.92
2021-12-13 12:36:00,,0824.6,5.02,0.00,23.1,22.2,00.0,32.2,24.8,06.3,0000.0,0001.43,0005.67,0000.90
2021-12-13 12:37:00,,0824.6,5.00,0.00,23.1,22.2,00.0,32.2,24.8,06.3,0000.0,0001.45,0006.39,0000.90
2021-12-13 12:38:00,,0824.7,5.00,0.00,23.1,22.3,00.0,32.2,24.8,06.3,0000.0,0001.45,0006.95,0000.89
2021-12-13 12:39:00,,0824.6,5.00,0.00,23.1,22.3,00.0,32.2,24.8,06.3,0000.0,0001.44,0006.46,0000.89
2021-12-13 12:40:00,,0824.6,4.98,0.00,23.1,22.3,00.0,32.2,24.8,06.3,0000.0,0001.47,0006.18,0000.88
2021-12-13 12:41:00,,0824.6,5.00,0.00,23.1,22.3,00.0,32.2,24.8,06.3,0000.0,0001.45,0006.16,0000.88
2021-12-13 12:42:00,,0824.6,5.00,0.00,23.1,22.3,00.0,32.2,24.8,06.3,0000.0,0001.48,0006.09,0000.88
2021-12-13 12:43:00,,0824.6,5.00,0.00,23.1,22.3,00.0,32.1,24.8,06.3,0000.0,0001.50,0006.15,0000.87
2021-12-13 12:44:00,,0824.6,4.99,0.00,23.1,22.3,00.0,32.1,24.8,06.3,0000.0,0001.51,0005.02,0000.88
2021-12-13 12:45:00,,0824.6,5.00,0.00,23.1,22.2,00.0,32.1,24.8,06.3,0000.0,0001.48,0004.82,0000.88
2021-12-13 12:46:00,,0824.6,4.99,0.00,23.1,22.2,00.0,32.1,24.8,06.3,0000.0,0001.52,0005.19,0000.89
2021-12-13 12:47:00,,0824.6,5.01,0.00,23.1,22.3,00.0,32.1,24.8,06.4,0000.0,0001.54,0005.23,0000.91
2021-12-13 12:48:00,,0824.6,4.99,0.00,23.1,22.3,00.0,32.1,24.8,06.3,0000.0,0001.54,0004.98,0000.92
2021-12-13 12:49:00,,0824.5,5.02,0.00,23.1,22.2,00.0,32.1,24.7,06.3,0000.0,0001.55,0004.61,0000.91
2021-12-13 12:50:00,,0824.6,5.00,0.00,23.0,22.2,00.0,32.1,24.7,06.2,0000.0,0001.57,0004.16,0000.91
2021-12-13 12:51:00,,0824.7,4.99,0.00,23.0,22.1,00.0,32.1,24.7,06.2,0000.0,0001.58,0004.18,0000.91
2021-12-13 12:52:00,,0824.6,5.01,0.00,23.0,22.2,00.0,32.1,24.7,06.3,0000.0,0001.60,0004.26,0000.91
2021-12-13 12:53:00,,0824.8,5.00,0.00,23.0,22.2,00.0,32.1,24.7,06.3,0000.0,0001.53,0004.55,0000.91
2021-12-13 12:54:00,,0824.8,5.00,0.00,23.0,22.1,00.0,32.1,24.6,06.3,0000.0,0001.51,0004.58,0000.91
2021-12-13 12:55:00,,0824.7,5.01,0.00,23.0,22.1,00.0,32.1,24.6,06.4,0000.0,0001.58,0004.61,0000.93
2021-12-13 12:56:00,,0824.6,5.00,0.00,23.0,22.1,00.0,32.1,24.6,06.4,0000.0,0001.58,0004.66,0000.93
2021-12-13 12:57:00,,0824.6,4.99,0.00,23.0,22.1,00.0,32.0,24.6,06.4,0000.0,0001.58,0004.39,0000.94
2021-12-13 12:58:00,,0824.6,5.01,0.00,22.9,22.1,00.0,32.0,24.6,06.4,0000.0,0001.56,0004.23,0000.94
2021-12-13 12:59:00,,0824.6,4.99,0.00,22.9,22.1,00.0,32.0,24.6,06.4,0000.0,0001.55,0003.84,0000.94
